Home   Weather   Zürich   Past weeks

Flag for Switzerland Past Weather in Zürich, Zurich, Switzerland — Yesterday and Last 2 Weeks

Now
53 °F

Cool.


Feels Like: 51 °F
Forecast: 36 / 60 °F
Wind: 6 mph from Southeast

Location: Zuerich-Fluntern

Current Time: May 1, 2017 at 2:42:37 am

Latest Report: May 1, 2017 at 1:00 am


Visibility: N/A

Pressure: 29.70 "Hg

Humidity: 40%

Dew Point: 29 °F

Location of ZürichLocation

Past Weather in Zürich — Graph

°F

Zürich Temperature Yesterday

Maximum temperature yesterday: 64 °F (at 5:00 pm)
Minimum temperature yesterday: 34 °F (at 7:00 am)
Average temperature yesterday: 49 °F

High & Low Weather Summary for the Past Weeks

 TemperatureHumidityPressure
High66 °F (Apr 24, 5:00 pm)100% (Apr 26, 10:00 am)30.57 "Hg (Apr 26, 10:00 am)
Low28 °F (Apr 20, 6:00 am)26% (Apr 21, 6:00 pm)29.66 "Hg (Apr 30, 7:00 pm)
Average42 °F73%30.13 "Hg
* Reported Apr 16 1:00 am — May 1 1:00 am, Zürich, Weather by CustomWeather, © 2017

Note: Actual official high and low records may vary slightly from our data, if they occured in-between our weather recording intervals... More about our weather records

Advertising

Zürich Weather History for the Previous 24 Hours

Scroll right to see more
 ConditionsComfort  
Time TempWeatherWind HumidityBarometerVisibility
1:00 am
Mon, May 1
53 °FCool.6 mph40%29.70 "HgN/A
12:00 am54 °FCool.8 mph40%29.70 "HgN/A
11:00 pm
Sun, Apr 30
51 °FCool.3 mph49%29.72 "HgN/A
10:00 pm52 °FCool.3 mph55%29.72 "HgN/A
9:00 pm53 °FCool.3 mph53%29.70 "HgN/A
8:00 pm58 °FPassing clouds.6 mph41%29.67 "HgN/A
7:00 pm63 °FMild.2 mph32%29.66 "HgN/A
6:00 pm64 °FMild.5 mph29%29.67 "HgN/A
5:00 pm64 °FMild.7 mph27%29.71 "HgN/A
4:00 pm63 °FMild.5 mph28%29.74 "HgN/A
3:00 pm62 °FRefreshingly cool.5 mph31%29.76 "HgN/A
2:00 pm62 °FRefreshingly cool.7 mph37%29.78 "HgN/A
1:00 pm58 °FRefreshingly cool.5 mph41%29.82 "HgN/A
12:00 pm56 °FRefreshingly cool.3 mph43%29.85 "HgN/A
11:00 am54 °FCool.3 mph54%29.87 "HgN/A
10:00 am47 °FCool.2 mph63%29.92 "HgN/A
9:00 am42 °FQuite cool.1 mph73%29.96 "HgN/A
8:00 am39 °FChilly.2 mph82%29.98 "HgN/A
7:00 am34 °FChilly.5 mph93%30.00 "HgN/A
6:00 am36 °FChilly.5 mph91%30.00 "HgN/A
5:00 am36 °FChilly.2 mph93%30.00 "HgN/A
4:00 am37 °FChilly.1 mph91%30.01 "HgN/A
3:00 am38 °FChilly.1 mph88%30.01 "HgN/A
2:00 am39 °FChilly.1 mph84%30.00 "HgN/A
Weather by CustomWeather, © 2017

See weather overviewHow to use our weather pages